Location: Evergreen Manor
(41.4083°N, 81.4939°W)
Time: 04:07:08
(UTC+00:00)

FENGYUN 3A - Pass Details

Date: 11 December 2019
Orbit: 823 x 837 km, 98.4° (Epoch: 17 January)

Event Time Altitude Azimuth Distance (km) Brightness Sun altitude
Rises 11:48:02 0° 3° (N) 3,375 6.6 -9.9°
Reaches altitude 10° 11:50:38 10° 353° (N) 2,435 5.8 -9.4°
Maximum altitude 11:55:16 30° 293° (WNW) 1,429 4.4 -8.6°
Drops below altitude 10° 11:59:53 10° 234° (SW) 2,418 5.8 -7.8°
Sets 12:02:28 0° 224° (SW) 3,346 6.6 -7.4°
